Content
SEND FEEDBACK

Daily
Averages
Monthly
Summary
United States of America

EARTH CITY, MISSOURI


Home > North America > United States > Missouri
Elevation: 476 feet     Latitude: 38 46N     Longitude: 090 30W

WEATHER
 
SELECT A DAY
Number of Records: 203,439;   Date Range: 1/1/95 - 7/29/14
 
SHARE

PRINT THIS DATA

[ ← Previous Day ]
WEATHER ALMANAC - APRIL 24, 2013
[ Next Day → ]
[ °C ]   °F
Weather ElementAverageHighLow
Temperature43.7 °F54 °F (4:51 pm)39 °F (7:51 am)
Dewpoint33.2 °F37.4 °F (1:07 am)28 °F (4:51 pm)
Humidity69.1 %87 % (1:07 am)37 % (4:51 pm)
Barometer30.14 in30.27 in (9:51 pm)30.01 in (12:51 am)
Wind Speed11.2 mph23 mph (7:16 am)
Wind Gust29.9 mph (7:16 am)
Weather ElementAverage
Visibility9 mi
Wind DirectionWNW (291.1 °)

Weather ElementTotal
Precipitation0.04 in
Heating Degree Days18.5 (Base 65)
Averaged from 36 records on April 24, 2013
WEATHER CONDITIONS BREAKOUT
WIND DIRECTION BREAKOUT
WEATHER BY HOUR - APRIL 24, 2013
[ °C ]   °F
Local TimeTemperatureDewpointHumidityBarometerVisibilityWind DirectionWind SpeedGust SpeedPrecipitationEventsConditions
12:51 AM41.0 °F37.0 °F86 %30.01 in8.0 miNorth (350°)10.4 mph0.01 inLight Drizzle
1:07 AM41.0 °F37.4 °F87 %30.02 in10.0 miNNW (330°)10.4 mph0.00 inLight Drizzle
1:39 AM41.0 °F37.4 °F87 %30.02 in10.0 miNW (320°)11.5 mph0.00 inLight Drizzle
1:51 AM41.0 °F36.0 °F82 %30.03 in10.0 miNNW (330°)11.5 mph0.00 inLight Drizzle
2:05 AM41.0 °F35.6 °F81 %30.02 in10.0 miNNW (330°)11.5 mph0.00 inLight Drizzle
2:51 AM41.0 °F36.0 °F82 %30.04 in10.0 miNW (320°)11.5 mph0.00 inOvercast
3:51 AM41.0 °F35.1 °F79 %30.06 in10.0 miNNW (340°)11.5 mphOvercast
4:00 AM41.0 °F35.6 °F81 %30.04 in10.0 miNNW (330°)11.5 mph0.00 inLight Drizzle
4:16 AM41.0 °F35.6 °F81 %30.05 in9.0 miNNW (330°)11.5 mph0.00 inLight Drizzle
4:51 AM41.0 °F36.0 °F82 %30.07 in7.0 miNW (310°)10.4 mph0.00 inLight Drizzle
5:51 AM39.9 °F34.0 °F79 %30.06 in7.0 miNNW (340°)13.8 mph0.00 inLight Drizzle
6:44 AM39.2 °F35.6 °F87 %30.09 in7.0 miNW (310°)17.3 mph25.3 mph0.00 inRainLight Rain
6:51 AM39.9 °F35.1 °F83 %30.10 in7.0 miNW (310°)18.4 mph24.2 mph0.00 inRainLight Rain
7:03 AM39.2 °F33.8 °F81 %30.09 in3.0 miNW (320°)19.6 mph26.5 mph0.00 inRainLight Rain
7:11 AM39.2 °F33.8 °F81 %30.10 in4.0 miNW (310°)17.3 mph27.6 mph0.00 inRainLight Rain
7:16 AM39.2 °F33.8 °F81 %30.10 in5.0 miNW (310°)23.0 mph29.9 mph0.00 inRainLight Rain
7:32 AM39.2 °F35.6 °F87 %30.11 in9.0 miNW (310°)15.0 mph0.01 inRainLight Rain
7:41 AM39.2 °F35.6 °F87 %30.12 in9.0 miNW (310°)13.8 mph0.01 inRainLight Rain
7:51 AM39.0 °F34.0 °F82 %30.15 in9.0 miNW (310°)13.8 mph20.7 mph0.01 inRainLight Rain
8:51 AM39.0 °F34.0 °F82 %30.17 in10.0 miWNW (300°)15.0 mph27.6 mph0.00 inRainLight Rain
9:51 AM39.9 °F33.1 °F77 %30.19 in10.0 miNW (310°)13.8 mph23.0 mph0.00 inOvercast
10:51 AM43.0 °F33.1 °F68 %30.19 in10.0 miNW (310°)16.1 mph27.6 mphMostly Cloudy
11:14 AM44.6 °F33.8 °F66 %30.18 in10.0 miWNW (300°)13.8 mph23.0 mphMostly Cloudy
11:51 AM46.9 °F33.1 °F59 %30.19 in10.0 miWNW (300°)12.7 mph19.6 mphScattered Clouds
12:51 PM48.0 °F32.0 °F54 %30.20 in10.0 miWNW (300°)9.2 mphScattered Clouds
1:51 PM48.9 °F28.9 °F46 %30.21 in10.0 miNW (320°)11.5 mph20.7 mphPartly Cloudy
2:51 PM52.0 °F30.0 °F43 %30.21 in10.0 miWNW (290°)6.9 mphPartly Cloudy
3:51 PM53.1 °F30.0 °F41 %30.21 in10.0 miNW (310°)10.4 mphPartly Cloudy
4:51 PM54.0 °F28.0 °F37 %30.21 in10.0 miWest (280°)8.1 mphScattered Clouds
5:51 PM53.1 °F28.0 °F38 %30.21 in10.0 miNNW (330°)8.1 mphScattered Clouds
6:51 PM51.1 °F28.9 °F43 %30.21 in10.0 miNNW (330°)3.5 mphScattered Clouds
7:51 PM50.0 °F28.9 °F44 %30.23 in10.0 miCalmMostly Cloudy
8:51 PM50.0 °F28.0 °F43 %30.25 in10.0 miCalmMostly Cloudy
9:51 PM46.9 °F30.9 °F54 %30.27 in10.0 miSW (220°)3.5 mphScattered Clouds
10:51 PM46.0 °F30.0 °F54 %30.27 in10.0 miSW (220°)3.5 mphScattered Clouds
11:51 PM43.0 °F30.9 °F62 %30.27 in10.0 miWSW (240°)3.5 mphClear
Hourly data recorded from KSTL, located miles away from Earth City, Missouri







STORIES FROM OUR PARTNERS